15:22
Airports
History
Links
Donate
Help keep this website running!
PayPal
Bitcoin
This page is community maintained. The information is intended for PC simulator navigation or reference.
Always use approved charts for navigation.
UUBP
BRYANSK
BRYANSK (UUBP)
Temenichi, Bryanskaya oblast, Russian Federation (241523)
(C)
Lat/Lng:53° 12' 51.09" N / 34° 10' 35.21" E
53.214193 / 34.176447
Elevation:663'ft / 202mMSL
ID / ICAO:UUBP
Runways:1
Longest:17-35
Concrete 2,398m / 7,867ft
Controlled:Yes
METAR15:00 GMT 2017-11-20
Altimeter: 29.80
Visibility: 3.1 statute miles
Wind: 0 knots (from 000°)
Temp: 0°c / 32°f
Humidity: %

METAR: UUBP 201500Z 00000MPS 5000 BR OVC016 M00/M01 Q1009 R16/////// NOSIG RMK QFE738/0985

(Powered by phpweather)
Airport Radio Frequencies
Tower: 129.8
Approach: 119.2
Nearby VORs <50NM
Nearby NDBs
Runway 17 / 35
Dimensions:2397.9 x 42.1m 7867' x 138'ft
Surface:Concrete
Edge Lights:Low intensity
Runway 17 [A]Runway 35 [B]
Heading:171°TH 351°TH
Lat:
Lng:
53° 13' 29.45"N
34° 10' 25.59"E
53° 12' 12.74"N
34° 10' 44.83"E
ALS:MALSMALS
User Notes and Comments
53° 12' 51.09" N / 34° 10' 35.21" E
Distance To
Airport ID:
Nearby Airports
(C) KURSK 134.8 NM
UUOK SE 138°
(C) Gomel 140.1 NM
UMGG WSW 250°
(C) Mogilev 175.0 NM
UMOO WNW 287°
(U) VITEBSK 203.4 NM
UMII ( WX ) NW 310°
(C) BELGOROD 205.1 NM
UUOB SSE 149°
(C) Bobrujsk 206.1 NM
UMNB W 267°
(C) VNUKOVO 206.4 NM
UUWW ( WX ) NE 37°
VFR Chart
Flight Planning at SkyVector.com